Regional Weather Roundup
Issued by NWS

Home | Current Version | Previous Version | Text Only | Print | Product List | Glossary Off
Versions: 1 2 3 4 5 6 7 8 9 10 11 12 13 14 15 16 17 18 19 20 21 22 23 24 25 26 27 28 29 30 31 32 33 34 35 36 37 38 39 40 41 42 43 44 45 46 47 48 49 50

000
ASUS43 KLSX 072059
RWRMO

WEATHER SUMMARY FOR MISSOURI
NATIONAL WEATHER SERVICE SPRINGFIELD MO
400 PM CDT TUE JUL 07 2015

NOTE: "FAIR" INDICATES FEW OR NO CLOUDS BELOW 12,000 FEET WITH NO
       SIGNIFICANT WEATHER AND/OR OBSTRUCTIONS TO VISIBILITY.
       CURRENT SKY AND/OR WEATHER CONDITIONS ARE NOT AVAILABLE FOR
       CHILLICOTHE AND FARMINGTON.

MOZ001>031-035>038-043-044-053-054-072200-
...NORTHERN AND WESTERN MISSOURI...

CITY           SKY/WX    TMP DP  RH WIND       PRES   REMARKS
KANSAS CTY INT CLOUDY    71  60  68 N9        30.06S
KANSAS C DTWN  CLOUDY    73  59  61 N14       30.04S
LEE`S SUMMIT   CLOUDY    73  59  61 N9        30.05
ST JOSEPH      PTSUNNY   73  57  57 N12       30.06F
CHILLICOTHE      N/A     75  59  57 NE10      30.06F
KIRKSVILLE     PTSUNNY   72  57  59 NE9       30.06S HAZE

$$
MOZ066>068-077>081-088>096-101>105-072200-
...SOUTHWEST MISSOURI...

CITY           SKY/WX    TMP DP  RH WIND       PRES   REMARKS
SPRINGFIELD    LGT RAIN  68  67  96 N8        30.02R FOG
JOPLIN         CLOUDY    66  63  90 NE6       30.04R FOG

$$
MOZ032>034-039>042-045>050-055>058-069>072-072200-
...CENTRAL MISSOURI...

CITY           SKY/WX    TMP DP  RH WIND       PRES   REMARKS
COLUMBIA       CLOUDY    69  63  81 NE8       30.03S HAZE
JEFFERSON CITY LGT RAIN  67  63  87 NE3       30.03R FOG
ROLLA          CLOUDY    65  64  97 N10       30.01R FOG
SEDALIA        CLOUDY    71  63  75 NE7       30.04F HAZE
OSAGE BEACH    CLOUDY    64  63  94 NE6       30.03R

$$
MOZ051-052-059>065-072200-
...EAST CENTRAL MISSOURI...

CITY           SKY/WX    TMP DP  RH WIND       PRES   REMARKS
ST LOUIS INTL  LGT RAIN  70  63  78 N10       30.01R
SPIRIT OF STL  CLOUDY    69  65  86 N9        30.00S
ST CHARLES     CLOUDY    68  65  90 NE13      30.00S FOG

$$
MOZ072>076-082>087-097>100-106>115-072200-
...SOUTH CENTRAL AND SOUTHEAST MISSOURI...

CITY           SKY/WX    TMP DP  RH WIND       PRES   REMARKS
CAPE GIRARDEAU LGT RAIN  75  73  93 SW5       29.98S
FARMINGTON     CLOUDY    75  73  94 CALM      30.02S
POPLAR BLUFF   CLOUDY    78  74  87 NW7       29.97S
WEST PLAINS    LGT RAIN  73  70  90 SW3       30.03S

$$



USA.gov is the U.S. government's official web portal to all federal, state and local government web resources and services.